Flag for Spain Weather past 2 weeks in Torrevieja, Spain

Now
54 °F

Clear.


Feels Like: 54 °F
Forecast: 60 / 78 °F
Wind: No wind

Location: Murcia / San Javier

Current Time: Oct 25, 2014 at 10:14:10 AM

Latest Report: Oct 25, 2014 at 9:00 AM


Visibility: 10 mi

Pressure: 30.09 "Hg

Humidity: 88%

Dew point: 50 °F

Location of TorreviejaLocation

Historic Weather in Torrevieja — Graph

°F

Torrevieja temperature yesterday

Maximum temperature yesterday: 75 °F (at 1:00 PM)
Minimum temperature yesterday: 55 °F (at 8:00 AM)
Average temperature yesterday: 67 °F

Past Weeks' High & Low Weather Summary

 TemperatureHumidityPressure
High82 °F (Oct 10, 2:00 PM)100% (Oct 17, 7:00 AM)30.24 "Hg (Oct 17, 7:00 AM)
Low54 °F (Oct 25, 8:00 AM)30% (Oct 22, 11:00 AM)29.77 "Hg (Oct 12, 4:00 PM)
Average71 °F72%30.02 "Hg
* Reported Oct 10 9:00 AM — Oct 25 9:00 AM, Torrevieja, Weather by CustomWeather, © 2014

Note: Actual official high and low records may vary slightly from our data, if they occured in-between our weather recording intervals... More about our weather records

Advertising

Torrevieja weather history for previous 24 hours

 ConditionsComfort  
Time TempWeatherWind HumidityBarometerVisibility
9:00 AM
Oct 25
54 °FClear.No wind88%30.09 "Hg10 mi
8:00 AM54 °FClear.No wind88%30.07 "Hg10 mi
11:00 PM
Oct 24
61 °FClear.1 mph94%30.07 "Hg10 mi
10:00 PM64 °FClear.No wind88%30.07 "Hg10 mi
9:00 PM66 °FClear.No wind83%30.04 "Hg10 mi
8:00 PM70 °FSunny.2 mph83%30.04 "Hg10 mi
7:00 PM72 °FSunny.No wind69%30.04 "Hg10 mi
6:00 PM73 °FSunny.2 mph69%30.01 "Hg10 mi
5:00 PM75 °FSunny.2 mph61%30.04 "Hg10 mi
4:00 PM75 °FPassing clouds.3 mph61%30.04 "HgN/A
3:00 PM75 °FPassing clouds.5 mph61%30.04 "HgN/A
2:00 PM75 °FPassing clouds.5 mph50%30.04 "HgN/A
1:00 PM75 °FSunny.1 mph44%30.07 "Hg10 mi
12:00 PM72 °FSunny.2 mph57%30.07 "Hg10 mi
11:00 AM70 °FPassing clouds.1 mph57%30.07 "HgN/A
10:00 AM64 °FPassing clouds.No wind73%30.04 "HgN/A
Weather by CustomWeather, © 2014

See weather overviewHow to use our weather pages